Wind_Speed
5 4 4 4 4 5 4 3 3 3 5 6 7 8 9 9 10 9 8 8 8 8 7 7 6 6 5 5 6 6 6 5 5 5 5 5 5 5 5 6 6 6 5 5 5 5 5 4 4
7 6 5 5 6 6 5 4 3 2 3 5 6 7 9 10 11 11 10 9 8 8 8 8 7 6 6 6 6 6 6 6 6 6 6 6 6 6 6 6 6 6 6 5 5 4 4 4 3
10 9 8 8 7 7 7 6 5 4 4 4 5 6 8 11 12 12 11 10 9 9 9 9 8 7 7 7 7 6 6 6 7 7 8 8 8 8 8 8 8 7 7 6 5 5 4 4 4
12 11 11 10 10 10 10 9 8 9 7 6 6 6 8 11 13 12 11 10 10 11 11 10 9 8 8 8 7 7 7 7 8 8 8 9 9 9 9 9 9 8 8 8 8 7 6 6 5
15 14 14 13 14 13 13 13 12 12 11 9 8 8 9 12 12 12 11 12 12 12 12 12 11 10 9 8 8 8 9 9 9 9 9 9 10 10 10 10 10 10 10 10 10 9 9 9 8
18 17 16 16 16 17 17 16 16 16 14 13 12 10 10 12 12 12 12 13 13 13 14 15 13 12 11 10 9 9 9 9 9 10 10 10 11 11 12 12 12 12 12 13 13 12 12 12 11
20 19 18 18 19 20 20 20 19 19 17 15 13 11 10 11 12 13 14 14 15 16 16 16 14 14 13 12 12 11 10 10 10 11 11 12 12 13 13 14 14 14 15 15 15 15 15 15 15
22 21 19 19 20 22 23 23 21 20 18 17 15 12 11 12 13 14 16 17 18 18 18 18 16 15 15 15 14 14 13 12 12 12 13 13 14 15 15 16 16 17 17 17 18 18 18 17 17
24 22 20 21 22 24 26 25 24 22 20 18 16 14 13 13 15 16 18 19 20 21 20 19 18 17 18 17 17 16 16 15 15 15 16 16 17 17 18 18 19 19 19 19 19 20 20 20 20
24 22 21 23 24 26 27 27 26 25 23 20 18 16 16 15 16 17 19 21 22 22 21 20 20 20 20 20 20 19 18 18 18 18 19 19 20 20 20 20 21 21 22 21 21 21 21 22 22
24 22 22 23 25 26 27 28 27 26 25 22 20 19 17 17 18 19 21 22 23 22 21 22 22 22 23 22 21 22 22 21 21 21 22 22 22 22 22 22 23 23 23 23 23 23 23 24 23
22 22 22 23 24 26 27 29 30 28 26 25 23 21 19 19 21 22 23 23 23 21 22 22 23 24 24 24 24 24 25 24 23 24 24 23 23 24 24 25 25 25 25 26 26 26 25 25 25
20 20 20 21 22 24 26 28 29 30 30 28 26 23 23 23 22 23 23 24 22 21 21 22 22 23 23 24 24 23 24 23 23 23 24 24 25 26 25 26 26 27 27 28 28 28 27 27 27
17 17 18 18 20 22 25 27 28 29 29 28 27 26 26 26 24 24 23 22 21 21 21 22 22 22 23 21 22 22 22 23 24 24 24 25 25 26 27 28 28 28 29 28 28 28 28 29 28
15 15 16 17 19 21 23 24 26 26 26 27 28 28 28 26 25 23 22 21 20 19 20 21 19 19 19 20 22 23 23 24 24 24 25 26 27 28 29 29 28 29 29 29 29 28 29 29 28
13 14 15 16 18 18 20 21 23 24 24 25 26 28 27 25 24 23 20 20 20 19 19 18 18 17 18 20 21 22 24 24 24 26 27 27 28 28 29 30 30 29 28 28 29 28 29 29 29
13 13 13 14 16 16 17 18 20 21 22 23 24 25 24 24 24 23 20 20 19 18 17 17 17 18 19 21 22 23 23 24 25 27 28 29 30 30 31 31 31 31 31 30 30 29 29 29 29
12 12 11 12 13 14 15 17 18 19 20 21 23 23 23 24 24 21 19 19 16 15 16 16 18 19 21 22 23 24 25 26 27 28 29 30 31 32 32 33 33 33 33 32 32 32 30 30 29
10 10 10 11 12 13 14 16 16 16 18 19 19 20 21 21 20 18 17 15 15 15 16 17 18 20 22 23 25 26 27 28 29 30 31 32 33 33 33 33 34 34 34 33 33 32 31 31 30
8 8 9 9 10 10 12 14 14 14 15 15 15 15 15 16 15 14 13 13 13 15 16 17 19 21 23 24 26 28 29 30 31 32 32 33 33 33 34 34 34 34 34 34 34 33 33 32 33
7 8 8 8 9 10 11 11 11 12 12 12 12 11 12 11 11 12 12 12 13 15 17 18 20 22 24 26 27 29 30 31 32 33 33 34 34 34 35 35 35 35 35 35 35 35 35 34 35
7 8 9 10 10 10 10 10 10 10 9 9 9 10 11 10 10 11 13 12 14 16 17 19 21 23 25 27 29 30 31 32 33 34 34 35 35 35 36 36 36 36 36 37 37 37 36 36 36
9 9 9 9 9 9 9 9 8 8 8 8 9 9 8 7 8 10 12 13 14 17 19 20 22 24 26 28 30 31 32 33 34 34 35 35 36 36 36 36 37 37 37 37 38 38 38 37 37
9 9 8 8 8 7 7 7 7 8 8 7 7 8 6 7 8 9 11 13 15 17 19 21 23 25 27 29 30 31 32 33 33 34 34 35 35 36 36 36 36 36 36 36 36 36 37 37 37
9 8 8 8 7 6 6 6 7 7 7 6 7 7 6 7 8 10 12 14 16 18 20 22 24 26 28 30 31 31 32 32 33 33 34 34 35 36 36 36 35 35 35 35 36 36 37 37 37
9 9 9 9 7 6 6 6 6 6 7 7 7 7 7 8 10 12 13 15 17 19 21 23 25 28 29 31 32 32 32 32 32 33 33 34 35 35 35 35 35 35 35 36 36 36 37 38 38
9 9 9 8 6 6 5 6 6 7 7 8 8 8 9 10 12 13 15 17 19 20 23 25 27 29 31 32 33 33 33 33 34 34 34 34 34 34 35 35 36 36 36 36 36 37 37 38 39
8 9 8 7 6 4 4 5 6 7 8 8 8 8 9 11 13 15 17 19 21 23 25 28 30 32 33 33 34 34 34 35 35 35 34 34 35 35 36 36 36 36 36 36 36 37 37 38 39
7 7 7 6 6 5 4 5 6 7 8 9 9 10 12 13 15 17 19 21 23 25 28 30 32 33 34 35 35 35 36 36 36 35 35 36 35 35 35 35 35 35 35 36 37 37 38 38 39
6 7 7 6 6 5 6 6 7 9 10 11 12 13 15 16 18 20 22 23 25 27 30 32 34 35 35 35 36 36 37 37 36 36 37 36 35 35 35 35 35 35 36 36 37 38 39 40 41
Wind_Direction
1 350 332 322 318 321 327 343 356 21 27 21 15 17 11 8 5 1 354 349 349 345 340 338 341 344 345 346 346 346 349 350 351 351 350 350 350 348 346 347 346 347 352 359 2 6 8 10 14
346 334 315 301 297 301 303 306 303 324 352 6 7 4 358 357 354 349 341 339 337 331 324 325 328 326 327 327 327 329 331 331 329 329 327 326 324 320 321 323 324 325 327 329 335 341 343 343 343
332 322 306 293 282 278 274 279 272 280 299 331 349 343 341 341 342 338 334 331 328 319 310 310 311 312 313 314 312 313 316 318 318 318 315 313 311 309 310 311 310 311 312 310 308 310 311 307 304
318 313 301 289 277 271 267 264 258 274 284 295 316 322 328 331 335 334 330 327 322 313 305 302 300 300 300 300 299 300 302 306 308 310 309 308 308 308 306 305 303 301 300 299 296 291 286 284 281
308 304 295 286 274 269 265 262 261 266 275 281 290 306 322 328 330 330 327 323 316 306 300 300 298 295 294 293 291 292 294 297 300 302 303 305 304 304 304 302 299 296 295 292 289 285 280 276 272
300 297 290 281 270 266 262 261 261 262 267 274 285 295 308 317 323 324 321 318 312 301 295 297 293 289 286 283 286 288 290 292 295 297 298 301 301 301 302 300 297 295 293 291 287 283 278 275 270
294 292 285 275 267 263 260 259 259 262 266 271 280 286 299 307 314 315 315 314 308 301 295 289 285 282 279 276 278 280 284 288 292 294 293 295 296 296 297 296 294 293 293 291 287 282 280 276 270
289 286 278 266 259 257 258 257 258 259 264 269 272 278 291 299 304 306 306 307 306 303 297 286 281 273 271 270 271 273 277 279 283 286 287 290 292 294 293 292 292 290 290 290 286 283 278 274 269
286 282 272 260 252 252 255 256 258 259 262 267 272 275 283 292 296 299 301 303 301 301 295 283 276 269 265 264 266 268 271 273 275 278 281 284 286 289 290 289 288 287 287 287 286 283 280 273 269
282 277 267 259 251 248 251 255 258 258 259 264 270 276 281 287 288 295 298 301 299 298 291 282 273 266 264 264 264 263 266 267 269 272 276 279 280 282 285 287 284 284 284 283 282 282 278 274 270
281 274 266 259 253 250 248 251 255 256 258 263 270 273 277 279 284 292 294 298 298 295 287 280 273 266 263 262 262 261 262 264 266 269 272 273 275 278 282 283 282 281 281 281 281 280 278 275 271
280 275 267 260 255 251 248 249 251 255 259 265 269 273 276 280 288 293 294 297 296 292 289 282 275 271 264 262 262 262 262 263 264 265 269 274 275 277 280 281 282 282 282 282 282 280 277 275 273
284 280 274 265 258 254 251 250 251 255 259 264 268 272 279 285 289 291 293 294 291 286 287 282 276 276 270 266 266 266 264 265 268 268 272 277 279 278 279 283 281 282 283 280 279 281 277 276 273
289 284 278 269 261 259 255 252 254 257 262 266 269 273 281 285 289 291 291 291 288 285 285 283 275 276 275 273 272 274 277 276 275 276 278 280 281 281 283 283 283 282 283 281 280 280 276 274 273
290 284 278 272 267 265 261 256 257 261 264 268 273 278 281 283 287 287 289 293 293 289 287 286 285 281 278 279 280 278 281 281 282 281 281 281 281 283 285 286 283 283 283 281 280 280 275 272 272
292 284 276 273 270 269 267 261 260 262 266 271 276 280 279 282 286 287 290 294 295 293 293 290 290 287 287 289 289 287 286 284 282 281 282 282 281 282 284 285 284 285 284 281 279 277 274 271 270
291 286 283 277 277 272 272 271 268 268 270 273 278 283 280 284 287 289 293 297 296 295 295 294 293 293 294 295 296 294 291 287 285 284 284 283 282 283 283 284 283 283 282 280 277 275 274 270 269
292 289 285 281 281 277 276 279 277 273 275 276 277 281 282 282 286 291 292 296 295 296 297 296 296 297 297 298 299 298 297 293 290 289 287 285 284 284 284 284 283 281 280 279 277 275 272 269 267
296 291 287 289 290 284 284 289 288 279 277 280 280 280 277 279 284 287 290 293 293 294 297 299 301 301 302 301 301 301 300 299 296 295 291 288 287 286 285 283 283 281 280 278 276 273 270 267 265
299 297 298 302 302 295 294 299 296 289 284 285 284 289 282 279 280 287 288 294 297 300 303 305 305 304 303 303 304 303 302 301 300 298 295 292 290 287 286 285 283 281 279 277 274 272 269 267 264
310 312 307 308 305 307 306 307 310 301 295 291 291 291 288 288 280 280 292 296 300 304 306 308 309 308 308 307 306 305 303 302 301 299 297 295 293 290 288 286 284 281 279 277 274 272 270 268 264
304 306 308 308 311 315 317 317 317 315 312 303 302 304 301 293 288 288 296 297 301 306 309 310 311 312 312 310 309 307 305 303 301 299 297 295 293 291 288 286 284 281 278 276 274 272 270 268 264
302 304 308 312 320 327 327 328 332 327 324 319 316 315 309 298 297 298 302 303 305 309 311 312 312 312 311 310 309 307 305 304 302 300 298 296 294 292 290 288 285 282 280 277 274 271 269 266 263
301 304 307 319 331 339 339 331 337 339 334 327 321 324 317 301 302 304 307 308 309 310 311 311 311 311 311 311 310 309 307 305 303 301 298 297 295 293 291 289 286 283 280 277 274 271 268 266 262
301 308 317 320 326 337 337 333 337 342 338 336 332 330 331 319 310 311 311 310 312 312 313 313 313 313 314 314 313 311 309 307 304 301 299 297 296 295 293 290 287 284 280 277 274 271 268 265 262
301 310 320 321 321 324 323 322 328 332 334 331 329 325 320 317 314 314 315 315 317 318 318 319 318 318 318 317 316 314 313 311 308 305 302 300 298 296 294 291 288 285 282 278 274 271 268 265 262
299 306 318 321 322 318 316 316 316 319 323 323 320 317 315 315 316 319 322 323 323 323 323 323 322 322 322 321 320 318 317 315 312 310 307 304 302 299 296 293 291 287 284 280 276 272 268 265 262
296 305 313 319 329 336 322 312 318 318 320 324 321 318 318 320 322 323 325 327 328 328 328 327 327 326 325 324 323 322 320 319 317 314 311 309 306 304 301 297 293 290 286 282 278 274 270 266 263
297 312 314 316 330 335 333 330 329 327 325 326 325 324 325 327 328 329 330 332 333 333 332 330 329 328 328 327 326 325 324 322 320 317 314 312 309 306 303 299 296 292 288 284 280 277 272 268 265
294 308 311 314 329 334 337 342 335 333 329 326 326 328 329 330 332 334 335 336 335 335 333 332 332 332 331 330 329 328 326 325 322 320 317 315 312 309 305 302 298 294 290 286 282 278 275 270 266
Height
5916 5915 5915 5915 5915 5913 5912 5911 5909 5908 5908 5908 5907 5906 5906 5906 5906 5908 5906 5904 5903 5902 5901 5901 5900 5899 5898 5898 5897 5897 5896 5896 5896 5896 5896 5896 5896 5896 5896 5895 5895 5895 5895 5895 5894 5894 5894 5894 5894
5915 5915 5915 5914 5913 5912 5911 5910 5909 5908 5908 5907 5906 5906 5906 5905 5905 5905 5903 5903 5902 5902 5901 5900 5899 5898 5897 5897 5896 5896 5895 5895 5895 5895 5895 5895 5895 5895 5895 5894 5894 5894 5894 5894 5894 5893 5893 5893 5894
5915 5914 5914 5913 5911 5911 5910 5909 5908 5907 5906 5906 5905 5905 5905 5904 5904 5903 5903 5902 5901 5901 5900 5899 5898 5897 5896 5895 5895 5894 5894 5894 5894 5894 5894 5894 5893 5893 5893 5893 5893 5893 5893 5893 5892 5892 5892 5892 5893
5914 5913 5913 5912 5909 5908 5907 5907 5907 5906 5905 5905 5904 5904 5903 5903 5903 5902 5901 5901 5900 5900 5899 5897 5896 5895 5895 5894 5893 5893 5893 5892 5892 5892 5892 5892 5892 5891 5891 5891 5891 5891 5891 5891 5891 5891 5891 5891 5891
5912 5911 5910 5909 5907 5905 5904 5904 5904 5904 5904 5903 5902 5902 5901 5901 5901 5900 5900 5899 5899 5898 5897 5896 5895 5894 5893 5893 5892 5892 5891 5891 5891 5890 5890 5890 5890 5889 5889 5889 5889 5889 5889 5889 5889 5889 5889 5889 5889
5909 5908 5908 5906 5904 5902 5901 5901 5901 5901 5901 5900 5900 5900 5899 5899 5899 5899 5898 5897 5897 5896 5895 5894 5893 5892 5891 5891 5890 5890 5890 5889 5889 5888 5888 5888 5888 5888 5887 5887 5886 5886 5886 5886 5886 5886 5887 5887 5887
5906 5905 5904 5902 5900 5898 5897 5897 5897 5898 5897 5897 5897 5897 5897 5897 5897 5896 5896 5895 5894 5893 5893 5892 5891 5890 5889 5888 5888 5888 5887 5887 5887 5886 5886 5886 5885 5885 5885 5884 5884 5883 5883 5882 5882 5883 5883 5883 5884
5901 5901 5900 5898 5896 5895 5893 5892 5893 5894 5894 5894 5894 5894 5894 5894 5894 5894 5893 5892 5891 5891 5890 5888 5887 5887 5886 5886 5885 5885 5884 5884 5884 5883 5883 5883 5882 5882 5882 5881 5881 5880 5880 5879 5879 5879 5879 5879 5880
5896 5897 5894 5893 5892 5890 5888 5888 5888 5890 5890 5891 5891 5891 5891 5891 5891 5890 5890 5889 5888 5887 5886 5885 5884 5883 5882 5882 5882 5881 5881 5880 5880 5880 5879 5879 5879 5878 5878 5877 5877 5876 5875 5875 5874 5874 5874 5874 5875
5890 5890 5889 5888 5886 5886 5884 5884 5884 5886 5886 5887 5888 5888 5887 5887 5887 5886 5886 5885 5884 5883 5882 5881 5880 5879 5878 5878 5877 5877 5877 5876 5876 5875 5875 5874 5874 5874 5873 5873 5872 5872 5871 5870 5870 5869 5869 5869 5870
5884 5884 5883 5882 5881 5881 5881 5880 5880 5881 5882 5883 5884 5884 5884 5883 5883 5882 5881 5880 5879 5878 5877 5876 5875 5874 5873 5873 5872 5872 5871 5870 5870 5870 5870 5869 5869 5868 5868 5867 5867 5866 5866 5865 5865 5864 5864 5864 5864
5878 5877 5877 5877 5876 5876 5876 5876 5876 5877 5878 5879 5879 5879 5879 5878 5878 5877 5876 5875 5874 5873 5872 5870 5869 5869 5868 5868 5868 5866 5865 5865 5864 5864 5863 5862 5862 5862 5862 5862 5861 5861 5860 5860 5859 5859 5858 5858 5859
5873 5873 5872 5872 5872 5872 5872 5872 5873 5873 5873 5874 5875 5875 5875 5874 5873 5872 5871 5869 5868 5867 5866 5864 5863 5863 5863 5862 5861 5859 5859 5859 5858 5857 5857 5857 5857 5856 5856 5855 5855 5855 5854 5853 5853 5852 5852 5852 5853
5869 5869 5868 5867 5867 5867 5868 5869 5869 5869 5869 5870 5870 5870 5870 5869 5868 5867 5865 5864 5863 5862 5860 5859 5858 5858 5857 5856 5856 5855 5854 5853 5852 5851 5851 5851 5851 5851 5850 5849 5848 5848 5847 5846 5846 5846 5846 5846 5846
5866 5866 5865 5864 5864 5864 5864 5865 5865 5865 5865 5866 5866 5866 5865 5865 5864 5862 5861 5860 5858 5858 5856 5855 5854 5854 5853 5852 5852 5850 5849 5848 5847 5846 5846 5846 5845 5844 5844 5842 5842 5841 5840 5840 5839 5839 5839 5839 5839
5864 5864 5863 5862 5861 5861 5862 5862 5861 5861 5862 5862 5861 5861 5861 5860 5859 5858 5857 5856 5855 5854 5852 5851 5850 5850 5849 5848 5847 5845 5844 5843 5842 5841 5841 5840 5839 5838 5837 5836 5835 5834 5832 5832 5832 5832 5832 5832 5832
5863 5862 5861 5860 5858 5858 5858 5858 5858 5857 5857 5857 5856 5856 5855 5855 5854 5853 5852 5851 5851 5850 5848 5848 5847 5845 5844 5843 5842 5840 5838 5837 5836 5835 5834 5833 5832 5831 5830 5829 5828 5827 5826 5825 5825 5825 5825 5825 5825
5862 5860 5859 5858 5856 5856 5855 5854 5854 5853 5853 5852 5852 5851 5850 5850 5850 5849 5848 5848 5847 5846 5845 5844 5843 5842 5840 5838 5836 5835 5833 5831 5830 5828 5827 5826 5825 5823 5822 5821 5820 5819 5818 5817 5817 5817 5817 5817 5817
5860 5859 5858 5856 5855 5854 5853 5851 5850 5849 5849 5848 5847 5846 5845 5845 5845 5845 5845 5844 5843 5842 5841 5840 5839 5837 5835 5833 5831 5829 5827 5825 5823 5821 5819 5818 5817 5815 5814 5812 5811 5810 5809 5808 5808 5808 5808 5809 5809
5859 5858 5857 5855 5853 5852 5851 5849 5847 5846 5845 5844 5843 5842 5841 5841 5841 5841 5841 5841 5840 5839 5837 5836 5835 5833 5831 5829 5826 5824 5821 5819 5816 5814 5812 5810 5808 5806 5805 5804 5803 5801 5800 5799 5799 5799 5799 5800 5800
5858 5857 5856 5854 5852 5850 5849 5848 5846 5844 5842 5841 5840 5839 5839 5838 5838 5839 5838 5838 5837 5836 5834 5833 5831 5828 5826 5823 5820 5817 5814 5812 5809 5806 5804 5801 5799 5797 5796 5794 5793 5792 5790 5790 5789 5789 5789 5790 5791
5858 5857 5855 5853 5851 5849 5848 5846 5844 5842 5840 5839 5838 5837 5836 5836 5836 5836 5836 5835 5834 5832 5831 5829 5826 5824 5821 5818 5814 5811 5808 5805 5802 5799 5796 5793 5791 5788 5786 5784 5783 5782 5780 5779 5779 5779 5779 5780 5781
5857 5856 5854 5852 5850 5848 5847 5845 5844 5841 5839 5837 5836 5835 5834 5834 5834 5834 5834 5833 5831 5829 5827 5825 5822 5819 5816 5813 5809 5805 5801 5797 5794 5791 5788 5785 5782 5779 5777 5775 5773 5771 5770 5769 5768 5768 5768 5769 5771
5856 5855 5853 5852 5850 5848 5847 5845 5843 5841 5839 5837 5836 5835 5834 5833 5833 5832 5831 5830 5828 5826 5824 5821 5818 5815 5812 5807 5803 5799 5794 5790 5786 5783 5779 5776 5773 5770 5767 5764 5762 5760 5759 5758 5757 5757 5757 5758 5759
5855 5854 5853 5851 5850 5848 5847 5845 5844 5841 5839 5837 5836 5835 5833 5832 5832 5831 5829 5827 5825 5823 5820 5817 5814 5810 5806 5801 5796 5792 5787 5783 5779 5775 5771 5767 5764 5760 5757 5754 5752 5750 5748 5747 5746 5746 5746 5746 5748
5853 5852 5852 5850 5849 5848 5846 5845 5844 5841 5839 5837 5836 5834 5833 5832 5830 5829 5826 5824 5822 5819 5816 5812 5808 5804 5799 5794 5789 5784 5780 5775 5770 5766 5762 5758 5754 5750 5747 5744 5741 5739 5737 5736 5735 5735 5734 5735 5736
5851 5850 5850 5849 5847 5847 5846 5844 5843 5841 5839 5837 5835 5834 5832 5830 5828 5826 5824 5821 5818 5814 5811 5807 5802 5798 5792 5787 5782 5777 5772 5767 5762 5757 5752 5748 5744 5740 5737 5733 5731 5728 5726 5724 5723 5723 5723 5723 5724
5850 5849 5848 5847 5846 5845 5844 5843 5842 5840 5838 5836 5834 5833 5831 5828 5826 5823 5820 5816 5813 5809 5805 5800 5796 5790 5785 5780 5774 5769 5763 5758 5752 5747 5742 5738 5734 5730 5726 5722 5719 5716 5714 5713 5711 5711 5710 5711 5711
5848 5848 5846 5846 5845 5844 5843 5844 5840 5839 5836 5834 5833 5831 5828 5826 5823 5819 5815 5812 5808 5804 5799 5794 5789 5784 5778 5772 5766 5760 5755 5749 5743 5738 5733 5729 5724 5719 5715 5711 5708 5705 5702 5700 5699 5698 5698 5698 5698
5846 5846 5845 5845 5844 5842 5841 5843 5839 5837 5834 5832 5830 5828 5825 5822 5818 5814 5810 5806 5802 5798 5793 5788 5782 5777 5771 5765 5759 5753 5747 5741 5735 5730 5724 5719 5714 5710 5705 5701 5697 5694 5691 5688 5686 5685 5684 5684 5685